Location: ???????
(55.3754°N, 39.3545°E)
Time: 09:10:50
(UTC+00:00)

Cosmos 2278 Rocket - Pass Details

Date: 14 April 2026
Orbit: 839 x 845 km, 71.0° (Epoch: 19 May)

Event Time Altitude Azimuth Distance (km) Brightness Sun altitude
Rises 18:53:34 0° 322° (NW) 3,418 7.1 -17.9°
Reaches altitude 10° 18:56:21 10° 310° (NW) 2,478 5.8 -18.2°
Maximum altitude 19:00:59 26° 256° (WSW) 1,593 3.8 -18.6°
Enters shadow 19:05:18 11° 202° (SSW) 2,370 4.2 -19.0°
